Back to catalog

GONETS M 15

M25

AliveCommunicationsPO
NORAD 44906·PAYLOAD·🇷🇺 Russia

Launched Dec 26, 2019 from Plesetsk Cosmodrome

Loading…

Next Passes (next 24 hours)

TLE

FreshSource: Space-Track

Epoch: Sep 14, 2026, 14:10 UTC

1 44906U 19096B   26257.59079080 -.00000113  00000-0 -89009-3 0  9994
2 44906  82.5281  29.6699 0014879 344.0565  16.0044 12.42883483304755

Track GONETS M 15 in real time with AllMySat

Download on the App Store